Location: Black Forest
(43.4794°N, 75.0081°W)
Time: 15:04:18
(UTC-05:00)

ISS - All Passes

Search period start: 18 January 2017 00:00
Search period end: 28 January 2017 00:00
Orbit: 400 x 410 km, 51.6° (Epoch: 19 January)

Date Brightness Start Highest point End Pass type
(mag) Time Alt. Az. Time Alt. Az. Time Alt. Az.
18 Jan - 00:20:38 10° W 00:23:47 45° NNW 00:26:56 10° NE night (unlit)
18 Jan - 01:58:21 10° NW 02:00:50 20° N 02:03:19 10° NE night (unlit)
18 Jan - 03:35:21 10° NW 03:38:05 24° NNE 03:40:49 10° ENE night (unlit)
18 Jan - 05:11:38 10° WNW 05:14:53 89° WSW 05:18:09 10° ESE visible
18 Jan - 06:49:43 10° WSW 06:50:54 12° SW 06:52:06 10° SSW visible
18 Jan - 21:53:40 10° SSE 21:55:29 14° SE 21:57:19 10° E night (unlit)
18 Jan - 23:28:20 10° WSW 23:31:35 76° NNW 23:34:50 10° NE night (unlit)
19 Jan - 01:05:48 10° WNW 01:08:28 22° NNW 01:11:07 10° NE night (unlit)
19 Jan - 02:43:12 10° NW 02:45:44 20° N 02:48:15 10° ENE night (unlit)
19 Jan - 04:19:32 10° NW 04:22:44 53° NNE 04:25:55 10° ESE visible
19 Jan - 05:56:28 10° W 05:58:59 21° SW 06:01:31 10° S visible
19 Jan - 22:36:14 10° SW 22:39:27 60° SE 22:42:40 10° ENE night (unlit)
20 Jan - 00:13:14 10° W 00:16:07 28° NNW 00:19:00 10° NE night (unlit)
20 Jan - 01:50:54 10° NW 01:53:20 19° N 01:55:45 10° NE night (unlit)
20 Jan - 03:27:26 10° NW 03:30:29 35° NNE 03:33:30 10° E night (unlit)
20 Jan - 05:03:56 10° WNW 05:06:58 38° SW 05:10:01 10° SSE visible
20 Jan - 21:44:27 10° SSW 21:47:23 32° SE 21:50:20 10° ENE night (unlit)
20 Jan - 23:20:43 10° W 23:23:49 39° NNW 23:26:54 10° NE night (unlit)
21 Jan - 00:58:28 10° NW 01:00:55 19° N 01:03:21 10° NE night (unlit)
21 Jan - 02:35:20 10° NW 02:38:09 26° NNE 02:40:57 10° ENE night (unlit)
21 Jan - 04:11:38 10° WNW 04:14:53 72° SW 04:18:07 10° SE visible
21 Jan - 20:53:06 10° S 20:55:22 18° SE 20:57:39 10° E night (unlit)
21 Jan - 22:28:19 10° WSW 22:31:33 62° NNW 22:34:48 10° NE night (unlit)
22 Jan - 00:05:55 10° WNW 00:08:30 21° N 00:11:06 10° NE night (unlit)
22 Jan - 01:43:10 10° NW 01:45:46 21° N 01:48:22 10° ENE night (unlit)
22 Jan - 03:19:28 10° NW 03:22:43 64° NNE 03:25:56 10° ESE night (unlit)
22 Jan - 04:56:40 10° W 04:58:52 17° SW 05:01:04 10° S visible
22 Jan - 21:36:07 10° SW 21:39:22 75° SE 21:42:37 10° ENE night (unlit)
22 Jan - 23:13:18 10° WNW 23:16:06 26° NNW 23:18:55 10° NE night (unlit)
23 Jan - 00:50:53 10° NW 00:53:20 19° N 00:55:48 10° NE night (unlit)
23 Jan - 02:27:20 10° NW 02:30:26 40° NNE 02:33:31 10° E night (unlit)
23 Jan - 04:03:56 10° WNW 04:06:51 30° SW 04:09:45 10° SSE night (unlit)
23 Jan - 20:44:09 10° SSW 20:47:13 40° SE 20:50:18 10° ENE night (unlit)
23 Jan - 22:20:43 10° W 22:23:45 34° NNW 22:26:46 10° NE night (unlit)
23 Jan - 23:58:28 10° NW 00:00:54 19° N 00:03:19 10° NE night (unlit)
24 Jan - 01:35:12 10° NW 01:38:06 28° NNE 01:40:59 10° E night (unlit)
24 Jan - 03:11:32 10° WNW 03:14:45 57° SW 03:17:56 10° SE night (unlit)
24 Jan - 19:52:34 10° S 19:55:09 22° SE 19:57:45 10° E night (unlit)
24 Jan - 21:28:14 10° WSW 21:31:26 52° NNW 21:34:38 10° NE night (unlit)
24 Jan - 23:05:54 10° WNW 23:08:26 20° N 23:10:58 10° NE night (unlit)
25 Jan - 00:43:01 10° NW 00:45:41 23° NNE 00:48:21 10° ENE night (unlit)
25 Jan - 02:19:18 10° NW 02:22:34 78° NE 02:25:48 10° ESE night (unlit)
25 Jan - 03:56:54 10° W 03:58:38 14° SW 04:00:21 10° SSW night (unlit)
25 Jan - 19:01:47 10° SSE 19:03:08 12° SE 19:04:30 10° ESE visible
25 Jan - 20:35:54 10° WSW 20:39:10 88° NNW 20:42:27 10° ENE night (unlit)
25 Jan - 22:13:15 10° WNW 22:15:59 24° NNW 22:18:43 10° NE night (unlit)
25 Jan - 23:50:44 10° NW 23:53:14 20° N 23:55:44 10° ENE night (unlit)
26 Jan - 01:27:07 10° NW 01:30:16 46° NNE 01:33:26 10° ESE night (unlit)
26 Jan - 03:03:53 10° W 03:06:36 25° SW 03:09:19 10° SSE night (unlit)
26 Jan - 19:43:48 10° SW 19:46:58 50° SE 19:50:08 10° ENE visible
26 Jan - 21:20:37 10° W 21:23:34 30° NNW 21:26:30 10° NE night (unlit)
26 Jan - 22:58:20 10° NW 23:00:45 19° N 23:03:10 10° NE night (unlit)
27 Jan - 00:34:57 10° NW 00:37:55 32° NNE 00:40:53 10° E night (unlit)
27 Jan - 02:11:21 10° WNW 02:14:29 45° SW 02:17:36 10° SE night (unlit)
27 Jan - 18:52:00 10° SSW 18:54:49 27° SE 18:57:39 10° ENE visible
27 Jan - 20:28:02 10° W 20:31:11 44° NNW 20:34:20 10° NE visible
27 Jan - 22:05:46 10° NW 22:08:15 20° N 22:10:44 10° NE night (unlit)
27 Jan - 23:42:44 10° NW 23:45:30 24° NNE 23:48:14 10° ENE night (unlit)
